Location: Little Cypress
(30.1590°N, 93.7750°W)
Time: 21:19:25
(UTC-05:00)

Daily predictions for brighter satellites

Satellite Brightness Start Highest point End
(mag) Time Altitude Azimuth Time Altitude Azimuth Time Altitude Azimuth
H-2A R/B 4.4 18:35:18 10° W 18:40:31 54° S 19:22:04 10° ESE
H-2A R/B 4.4 18:35:18 10° W 18:40:32 54° S 19:22:04 10° ESE
Okean 1 3.3 20:33:35 10° S 20:37:33 89° ENE 20:41:31 10° N
COSMOS 2406 3.3 20:32:33 10° S 20:38:10 60° ESE 20:43:47 10° NNE
ALOS 3.2 20:35:07 10° S 20:39:39 51° W 20:44:12 10° NNW
Cosmos 773 Rocket 4.3 20:36:32 10° SSW 20:41:41 72° WNW 20:46:48 10° N
Cosmos 1812 4.4 20:38:16 10° SSW 20:41:52 37° W 20:45:30 10° NNW
ASTRO E2 2.7 20:41:46 10° W 20:45:46 82° N 20:49:46 10° E
Cosmos 2112 Rocket 4.2 20:45:38 10° S 20:50:39 48° ESE 20:55:38 10° NNE
Cosmos 1975 2.9 20:47:16 10° N 20:51:19 64° E 20:55:22 10° SSE
Cosmos 1743 3.8 20:48:46 10° NNE 20:52:05 26° E 20:54:59 12° SE
ISS -1.8 20:51:30 10° WSW 20:54:30 32° NW 20:57:31 10° NNE
Cosmos 1346 3.4 20:52:11 10° SSE 20:54:44 36° E 20:57:18 10° NNE
Aureole 3 Rocket 4.2 20:48:04 10° SSE 20:54:47 47° E 20:59:38 10° NNE
CZ-2D R/B 3.3 20:55:00 10° S 20:58:49 82° W 21:02:38 10° NNW
OAO 2 Rocket 4.1 20:54:13 10° WNW 20:58:58 48° N 21:03:47 10° ENE
Spot 2 Rocket 3.5 20:54:59 10° SSE 21:00:02 87° WSW 21:05:06 10° NNW
Helios 1A 3.6 20:58:49 13° SE 21:02:16 38° ENE 21:06:10 10° N
GPS 2-14 Rocket1 4.3 21:00:33 10° SW 21:03:05 17° S 21:04:24 15° SSE
SL-27 R/B 2.6 21:00:02 10° S 21:03:35 53° ESE 21:07:09 10° NNE
H-2A R/B 4.3 21:02:57 10° SSW 21:06:19 33° W 21:09:41 10° NNW
Cosmos 1939 Rocket 3.6 21:04:16 16° SE 21:06:45 33° ENE 21:10:15 10° N
YAOGAN 6 4.2 21:06:34 16° E 21:07:42 18° ENE 21:10:08 10° NNE
USA 81 4.0 21:03:42 10° S 21:08:58 88° E 21:14:16 10° N
Iridium 4 Rocket 4.2 21:03:47 10° N 21:08:58 62° W 21:14:34 10° SSW
Cosmos 1709 Rocket 4.4 21:04:55 10° NNW 21:11:04 64° W 21:17:07 10° S
Cosmos 1680 Rocket 3.6 21:07:55 10° SSW 21:13:08 81° WNW 21:18:22 10° NNE
Okean 1-7 Rocket 4.2 21:11:05 15° SSE 21:14:16 36° E 21:18:22 10° NNE
Cosmos 1666 3.5 21:11:19 10° NNE 21:14:42 32° E 21:16:15 23° SE
Cosmos 1833 Rocket 4.3 21:19:03 14° E 21:19:03 14° E 21:21:23 10° ENE
CZ-3B Rocket 3.4 21:15:34 10° SW 21:18:53 25° SSE 21:21:33 19° SE
Envisat 2.9 21:17:49 14° SSE 21:22:15 76° ENE 21:27:19 10° N
USA 186 3.0 21:22:41 10° S 21:25:44 38° W 21:28:43 10° NNW
Meteor 2-4 Rocket 3.7 21:20:33 10° S 21:26:06 74° E 21:31:51 10° NNE
Cosmos 1656 Rocket 3.6 21:20:57 10° NNW 21:26:26 82° ENE 21:30:21 20° SSE
COSMOS 2455 3.6 21:24:47 10° NW 21:30:31 49° WSW 21:36:04 11° S
Helios 1B rocket 3.0 21:26:38 10° N 21:30:43 58° WNW 21:34:45 10° SSW
Aurora 2 Rocket 4.3 21:25:38 10° W 21:32:41 57° S 21:38:55 23° ESE
Orbus 7S 4.5 21:32:21 10° SW 21:35:16 42° SSE 21:38:12 23° E
Hubble Space Telescope 2.2 21:32:01 10° SSW 21:34:22 21° S 21:34:22 21° S
Cosmos 1025 Rocket 2.9 21:36:04 25° SSE 21:38:28 63° E 21:42:41 10° NNE
Cosmos 374 Rocket 4.3 21:34:47 10° NNW 21:38:33 72° ENE 21:40:04 37° SE
Cosmos 405 3.5 21:36:57 10° N 21:40:18 39° E 21:40:27 39° E
Spot 1 4.3 21:38:58 20° S 21:42:04 73° WSW 21:46:26 10° NNW
NOSS 8 (F) 4.3 21:41:27 10° SSW 21:45:12 71° ESE 21:48:40 10° NNE
GENESIS II 4.3 21:42:07 10° NNW 21:46:00 57° ENE 21:46:42 48° ESE
CZ-3A R/B 2.0 21:40:14 10° SW 21:47:10 54° NW 21:49:33 10° NNE
Cosmos 1943 Rocket 4.2 21:44:22 10° NW 21:48:36 23° W 21:52:49 10° SSW
Cosmos 2181 Rocket 4.5 21:49:25 32° SE 21:51:35 42° E 21:57:28 10° NNE
Cosmos 2074 Rocket 4.2 21:46:36 10° N 21:52:49 72° W 21:57:47 17° S
Okean 2 3.2 21:54:02 47° S 21:55:08 78° E 21:59:13 10° N
Cosmos 2184 Rocket 4.2 21:49:53 10° N 21:56:11 71° W 22:00:55 18° S
Cosmos 1441 Rocket 4.5 21:53:30 10° SSW 21:57:01 38° W 22:00:31 10° N
Tiangong 2 4.4 21:56:42 10° NNW 21:57:20 10° N 21:57:58 10° N
Cosmos 1610 Rocket 4.4 21:51:26 10° N 21:57:41 81° E 22:00:51 31° S
ARGOS 3.8 21:58:32 34° E 21:59:33 37° ENE 22:04:30 10° N
Resurs 01 Rocket 4.4 22:00:22 10° WSW 22:02:17 13° W 22:04:12 10° WNW
Cosmos 1371 Rocket 4.2 21:57:30 10° N 22:02:42 55° ENE 22:03:45 47° ESE
ERS-1 Rocket 2.9 22:01:27 45° SSE 22:02:58 77° ENE 22:07:59 10° N
NOAA 11 4.2 22:05:25 46° SE 22:06:53 65° ENE 22:12:15 10° N
Terra 4.1 22:07:57 11° ENE 22:07:57 11° ENE 22:08:59 10° NE
SPOT 5 3.3 22:09:29 38° ENE 22:09:29 38° ENE 22:13:12 10° N
MetOp-B 4.0 22:18:17 59° SE 22:19:17 78° ENE 22:24:38 10° N
CENTAUR R/B 3.8 22:12:21 10° NW 22:20:10 50° WSW 22:24:51 26° S
Cosmos 962 Rocket 4.4 22:14:26 10° N 22:20:37 67° E 22:21:52 54° SE
Cosmos 2082 Rocket 2.0 22:23:35 59° SSE 22:24:34 73° ESE 22:30:13 10° NNE
ASTRO E2 4.1 22:22:27 10° W 22:24:51 30° WSW 22:24:51 30° WSW
MOS 1-B Rocket 3.8 22:26:27 55° S 22:27:49 88° WSW 22:34:03 10° NNW
Meteor 1-15 Rocket 4.3 22:22:56 10° NNW 22:28:29 72° W 22:29:49 51° SSW
Cosmos 2278 4.1 22:25:38 10° N 22:31:07 47° ENE 22:31:15 47° ENE
Meteor 2-19 Rocket 4.3 22:28:42 10° N 22:34:51 88° W 22:36:04 61° S
SL-24 DEB 4.3 22:35:50 72° N 22:35:50 72° N 22:40:01 10° N
SL-8 Rocket 4.1 22:32:10 10° N 22:38:18 55° E 22:38:28 55° E
H-2A R/B 2.4 22:40:27 51° NE 22:40:27 51° NE 22:44:40 10° N
Cosmos 2154 Rocket 4.4 22:34:05 10° NNW 22:40:17 58° W 22:42:32 38° SSW
Mugunghwa Rocket 4.3 22:35:06 10° WSW 22:43:16 64° S 22:44:09 60° SE
OAO 2 Rocket 3.6 22:39:15 10° WNW 22:44:05 61° N 22:44:05 61° N
Cosmos 1624 Rocket 4.1 22:40:35 10° NNW 22:45:50 67° WSW 22:45:57 66° WSW
Cosmos 2228 4.1 22:43:31 10° N 22:46:19 39° N 22:46:19 39° N
SL-08 RB Rocket 4.2 22:50:33 55° NNW 22:50:33 55° NNW 22:54:05 10° NNW
Cosmos 921 Rocket 3.9 22:46:07 10° NNW 22:49:22 48° NNW 22:49:22 48° NNW
Cosmos 2369 3.7 22:45:15 10° NNW 22:50:41 70° NE 22:50:41 70° NE
Cosmos 1697 Rocket 3.8 22:46:35 10° N 22:50:57 32° NE 22:50:57 32° NE
Cosmos 1656 4.1 22:53:33 10° N 22:58:04 51° NNE 22:58:04 51° NNE
Cosmos 1833 Rocket 3.2 23:00:38 46° WSW 23:01:49 54° WNW 23:07:19 10° N
Cosmos 2056 Rocket 4.3 23:00:12 10° NNW 23:04:38 43° W 23:04:38 43° W
DMSP B5D2-2 4.4 23:02:03 10° N 23:06:35 63° NNW 23:06:35 63° NNW
Cosmos 1959 Rocket 4.5 23:01:12 10° N 23:07:14 78° NE 23:07:14 78° NE
Timation 2 Rocket 3.9 23:08:52 81° W 23:08:56 82° WNW 23:15:12 10° NNE
Cosmos 2218 Rocket 4.1 23:18:29 10° N 23:24:05 67° WNW 23:24:05 67° WNW
Cosmos 1980 Rocket 3.3 23:34:28 10° N 23:38:08 37° NNE 23:38:08 37° NNE
Terra 3.6 23:46:50 29° NW 23:46:50 29° NW 23:49:14 10° NNW
Nadezhda 3 Rocket 4.5 23:46:50 57° N 23:46:50 57° N 23:51:46 10° N
H-2A R/B 4.4 23:52:19 23° NW 23:52:19 23° NW 23:54:09 10° NNW
Cosmos 2322 Rocket 4.2 23:46:09 10° NNE 23:48:59 19° NE 23:48:59 19° NE
